STARLINK-5131, 53996

Orbit data source: Space-Track

STARLINK-5131, 53996 is a payload satellite owned by SpaceX/Seattle (US) in LEO that was launched on Wed, 05 Oct 2022 UTC via an FALCON 9 launch vehicle from the Air Force Western Test Range (AFWTR). Payload-class satellites include a variety of spacecraft equipped with specific instruments for various scientific and technological missions. These include communications satellites like Starlink; space stations such as the ISS; scientific satellites like the Hubble; Earth observation satellites from companies like Planet Labs, Umbra, and HawkEye 360; GPS; miniature CubeSats for education and research; and military/defense satellites.

Loading next visibility...
Identifier
53996, 2022-125AJ
Orbit
LEO
Country
Flag of USUS
Related business
Manufacturer
SpaceX/Seattle
Mission
Operational Commercial Communications
Bus & Motor
STARLINK, Unknown motor
Mass
305 kg wet, ~290 kg dry
Launch date (UTC)
2022-10-05 (4 years ago)
Launch vehicle
FALCON 9
Launch site
Air Force Western Test Range (AFWTR)
Object type
Payload
Rocket body
Debris
Shape & HBR
Box + 1 Pan, 10.1 m
Radar Cross Section
13.562 m², Large (>1 m²)

Expand to show TLE details & history
Last TLE update: 2 days ago

TLE from 2 days ago
0 STARLINK-5131
1 53996U 22125AJ  26171.22164214 -.00000111  00000-0  11136-4 0  9993
2 53996  53.1609 113.5627 0001327  89.3078 270.8066 15.08834910204948
Epoch: 2026-06-20T05:19Z
TLE epoch observation values (Epoch: 2026-06-20T05:19:09.880Z)
Latitude
-0°
Longitude
125.33216°
Altitude
540.638 km
Speed
7.593 km/s
True Right ascension
07h 34m 15s
True Declination
0° 00' 00"
Sunlit
Object was in daylight at epoch
Visualization orbit readout
Latitude
Unknown
Longitude
Unknown
Altitude
Unknown
Speed
Unknown
Apparent Right ascension
Unknown
Apparent Declination
Unknown
Sunlit
N/A
Visualization observer readout
Local Sidereal Time
21:30:26
Azimuth
Unknown
Elevation
Unknown
Doppler factor
Unknown
Orbital elements
Apogee altitude
540.931 km
Perigee altitude
539.095 km
Semi-major axis
6,918.15 km
Eccentricity
0.00013
Inclination
53.1609°
RAAN
113.5627°
Arg. of periapsis
89.3078°
True anomaly
270.7914°
Mean anomaly
270.8066°
Eccentric anomaly
270.799°
Mean motion
3.77188 °/min
Orbital period
95.44 mins
BSTAR
0.000011136
Loading maneuver chart data...
Computing Atmospheric mass density...
Loading historical data...
Loading historical data...
Loading historical data...
Loading historical data...
Loading historical data...
Loading historical data...
Loading historical data...

Documentation

Showing up to 5 results
|